Location: Unspecified
(0.0000°N, 0.0000°E)
Time: 20:38:44
(UTC+00:00)

Tiros 1 - Visible Passes

Search period start: 14 July 2020 00:00
Search period end: 24 July 2020 00:00
Orbit: 630 x 664 km, 48.4° (Epoch: 13 July)

Date Brightness Start Highest point End Pass type
(mag) Time Alt. Az. Time Alt. Az. Time Alt. Az.
14 Jul 7.1 04:46:43 10° NW 04:51:29 67° SW 04:56:15 10° SSE visible
15 Jul 9.2 03:37:12 24° E 03:37:12 24° E 03:39:41 10° ESE visible
15 Jul 8.4 05:15:06 15° W 05:17:28 21° SW 05:21:03 10° S visible
16 Jul 9.4 04:05:11 16° SSE 04:05:11 16° SSE 04:06:11 10° SE visible
